Regional Weather Roundup
Issued by NWS

Home | Current Version | Previous Version | Graphics & Text | Print | Product List | Glossary On
Versions: 1 2 3 4 5 6 7 8 9 10 11 12 13 14 15 16 17 18 19 20 21 22 23 24 25 26 27 28 29 30 31 32 33 34 35 36 37 38 39 40 41 42 43 44 45 46 47 48 49 50
000
ASUS45 KBOU 250107
RWRCO

WEATHER ROUNDUP FOR COLORADO
NATIONAL WEATHER SERVICE DENVER/BOULDER CO
700 PM MDT THU JUL 24 2014

NOTE: "FAIR" INDICATES FEW OR NO CLOUDS BELOW 12000 FEET WITH NO
SIGNIFICANT WEATHER AND/OR OBSTRUCTIONS TO VISIBILITY.

COZ001>005-013-030-031-250200-
...NORTHWEST COLORADO...

CITY           SKY/WX    TMP DP  RH WIND       PRES   REMARKS
CRAIG          PTSUNNY   71  51  49 SW7       30.14R
HAYDEN         PTSUNNY   81  45  28 SW9       30.17S
MEEKER         PTSUNNY   81  49  32 S7        30.16S
MOUNT WERNER   NOT AVBL
STEAMBOAT SPGS PTSUNNY   76  55  47 E5        30.20S
WALDEN         SUNNY     70  43  37 SW15G22   30.29F
$$

COZ006>008-011-250200-
...WEST CENTRAL VALLEYS...

CITY           SKY/WX    TMP DP  RH WIND       PRES   REMARKS
GRAND JUNCTION PTSUNNY   84  52  33 S23       30.04R
MONTROSE       PTSUNNY   75  55  49 SE22      30.22F
EAGLE          PTSUNNY   79  52  38 SW14      30.22S
RIFLE          PTSUNNY   82  54  37 SE23G30   30.10F
DELTA          PTSUNNY   81  56  41 E10G21    30.16R
NUCLA          PTSUNNY   77  52  41 E15G24    30.22S
$$

COZ017>023-064>068-250200-
...SOUTHWEST COLORADO...

CITY           SKY/WX    TMP DP  RH WIND       PRES   REMARKS
DURANGO        CLOUDY    72  57  59 N9        30.24R
CORTEZ         MOSUNNY   83  50  31 S17       30.16S
PAGOSA SPRINGS PTSUNNY   78  45  31 NW6       30.32S
TELLURIDE      TSTM      55  54  94 E7        30.51S
WOLF CREEK PAS NOT AVBL
$$

COZ009-010-012-014-032>034-037-058>063-250200-
...CENTRAL COLORADO...

CITY           SKY/WX    TMP DP  RH WIND       PRES   REMARKS
ASPEN          CLOUDY    66  56  70 N5        30.35R
BUENA VISTA    CLOUDY    73  43  33 NW15G22   30.32R
COPPER MTN     PTSUNNY   59  36  41 W12G20    30.67F
BERTHOUD PASS  FAIR      54  41  62 NW20G26   30.70F
COTTONWOOD PAS CLOUDY    70  39  32 W8G17     30.48R
GUNNISON       CLOUDY    68  46  45 SW9       30.40R
KREMMLING      MOSUNNY   70  54  56 CALM      30.28F
LEADVILLE      CLOUDY    62  41  46 NW8       30.49S
MONARCH PASS   TSTM      50  43  76 SW29G43   30.79R
SALIDA         CLOUDY   N/A N/A N/A NW7       30.38R
SUNLIGHT       TSTM      55  52  88 CALM      30.59S
WILKERSON PASS CLOUDY    57  39  51 N6        30.62F
$$

COZ069>075-250200-
...SAN LUIS VALLEY/SANGRE DE CRISTO MOUNTAINS...

CITY           SKY/WX    TMP DP  RH WIND       PRES   REMARKS
ALAMOSA        PTSUNNY   74  49  41 NW21G31   30.28R
LA VETA PASS   MOSUNNY   66  37  34 SW13G23   30.49R
SAGUACHE       TSTM      59  54  82 NE17      30.39R
$$

COZ035-036-038>040-250200-
...NORTHERN COLORADO FRONT RANGE...

CITY           SKY/WX    TMP DP  RH WIND       PRES   REMARKS
DENVER INTL AP PTSUNNY   88  46  23 NE10      30.04S
DMNS CITY PARK   N/A     84  51  32 E7        30.04S
AURORA         PTSUNNY   82  51  34 N6        30.08R
FRONT RANGE AP PTSUNNY   88  48  25 N7        30.06
ERIE MUNI ARPT CLOUDY    86  51  29 E3        30.02S
BOULDER MUN AP CLOUDY    86  52  30 CALM      30.03S
CENTENNIAL     PTSUNNY   83  45  26 NE6       30.09R
BROOMFIELD     NOT AVBL
FORT COLLINS   PTSUNNY   88  54  31 NE6       29.98S
LONGMONT       PTSUNNY   88  53  30 S5        30.01F
$$

COZ041-046-047-076>085-087-088-250200-
...PIKES PEAK/PALMER DIVIDE AND SOUTHERN FOOTHILLS...

CITY           SKY/WX    TMP DP  RH WIND       PRES   REMARKS
COLO. SPRINGS  CLOUDY    78  49  35 N25       30.13R THUNDER
A. F. ACADEMY  TSTM      66  55  68 NW20G32   30.23R
ELLICOTT       CLOUDY    84  44  24 MISG      30.07S
FALCON         TSTM      70  50  48 NW10G22   30.20R
FORT CARSON    PTSUNNY   80  48  32 N30G38    30.08R
LIMON          CLOUDY    89  39  17 W7        30.01F
MONUMENT HILL  TSTM      68  54  60 S16       30.21R
TRINIDAD       MOSUNNY   92  38  15 S22G35    30.04R
$$

COZ042>045-048>051-090-091-250200-
...NORTHEAST COLORADO...

CITY           SKY/WX    TMP DP  RH WIND       PRES   REMARKS
GREELEY ARPT   MOSUNNY   86  63  45 SE3       29.98F
AKRON          CLOUDY    86  47  25 N10       29.99S
BURLINGTON     CLOUDY    86  50  28 S6        29.92S
WRAY             N/A     81  60  48 N17G23    29.91S
STERLING       CLOUDY    82  63  51 NE6       29.93R
HOLYOKE        CLOUDY    79  59  50 NE13      29.93F
FORT MORGAN    CLOUDY    85  49  29 NE13      29.98R
$$

COZ086-089-092>099-250200-
...SOUTHEAST COLORADO...

CITY           SKY/WX    TMP DP  RH WIND       PRES   REMARKS
PUEBLO         MOSUNNY   96  40  14 SW12      29.92S
LA JUNTA       SUNNY     98  43  15 S6        29.91S
LAMAR          SUNNY     98  42  14 S16G24    29.86S
SPRINGFIELD      N/A     91  45  20 S25G31    29.99R
$$



USA.gov is the U.S. government's official web portal to all federal, state and local government web resources and services.